Location: Newark
(48.8604°N, 2.3376°E)
Time: 20:45:02
(UTC+00:00)

X-37B - Pass Details

Date: 28 September 2021
Orbit: 385 x 389 km, 45.0° (Epoch: 17 October)

Event Time Altitude Azimuth Distance (km) Brightness Sun altitude
Exits shadow 03:58:25 40° 178° (S) 585 1.3 -18.2°
Maximum altitude 03:58:27 40° 176° (S) 585 1.3 -18.2°
Drops below altitude 10° 04:01:28 10° 105° (ESE) 1,415 4.3 -17.8°
Sets 04:03:36 0° 97° (E) 2,270 5.7 -17.4°
